Skip Page Navigation
NASA JPL Caltech
NASA Logo - Jet Propulsion Laboratory + View the NASA Portal
+ Center for Near-Earth Object Studies
JPL Home Earth Solar System Stars & Galaxies Technology
JPL Solar System Dynamics
BODIES ORBITS EPHEMERIDES TOOLS PHYSICAL DATA DISCOVERY FAQ SITE MAP
JPL Small-Body Database Browser
Search: [ help ]  
79146 (1992 JP3)
Classification: Main-belt Asteroid          SPK-ID: 2079146
Ephemeris | Orbit Diagram | Orbital Elements | Mission Design | Physical Parameters | Discovery Circumstances ]

[ show orbit diagram ]
Orbital Elements at Epoch 2459000.5 (2020-May-31.0) TDB
Reference: JPL 21 (heliocentric ecliptic J2000)
 Element Value Uncertainty (1-sigma)   Units 
e .1722550599708087 6.7042e-08  
a 2.533562512003773 8.8623e-09 au
q 2.097143549558771 1.7328e-07 au
i 7.982418897105628 7.5502e-06 deg
node 42.03980016216486 3.4216e-05 deg
peri 198.9913050858431 4.3103e-05 deg
M 337.1353665350024 2.6006e-05 deg
tp 2459094.052975793463
(2020-Sep-01.55297579)
0.00010666 TDB
period 1472.976653538072
4.03
7.7286e-06
2.116e-08
d
yr
n .2444030590269603 1.2824e-09 deg/d
Q 2.969981474448776 1.0389e-08 au
  Orbit Determination Parameters
   # obs. used (total)      1025  
   data-arc span      10267 days (28.11 yr)  
   first obs. used      1992-05-02  
   last obs. used      2020-06-11  
   planetary ephem.      DE431  
   SB-pert. ephem.      SB431-N16  
   condition code      0  
   norm. resid. RMS      .50494  
   source      ORB  
   producer      Otto Matic  
   solution date      2020-Jun-24 00:01:58  

Additional Information
 Earth MOID = 1.08677 au 
 Jupiter MOID = 2.04529 au 
 T_jup = 3.415 
[ show covariance matrix ]

Ephemeris | Orbit Diagram | Orbital Elements | Mission Design | Physical Parameters | Discovery Circumstances ]

Physical Parameter Table
Parameter Symbol Value Units Sigma Reference Notes
absolute magnitude H 15.4   n/a MPO385312  

79146 (1992 JP3)          Discovered 1992-May-02 by Debehogne, H. at La Silla
Reference: 20040504/Numbers.arcLast Updated: 2004-07-16

Alternate Designations
 1992 JP3 = 1996 HV18 
Ephemeris | Orbit Diagram | Orbital Elements | Mission Design | Physical Parameters | Discovery Circumstances ]
ABOUT SSD CREDITS/AWARDS PRIVACY/COPYRIGHT GLOSSARY LINKS
FirstGov 2020-Jul-03 14:35 UT
(server date/time)  
NASA Home Page
Site Manager:   Ryan S. Park
Webmaster  Alan B. Chamberlin